Terminal Aerodrome Forecast
Issued by NWS Chicago, IL

Home | Current Version | Previous Version | Graphics & Text | Print | Product List | Glossary On
Versions: 1 2 3 4 5 6 7 8 9 10 11 12 13 14 15 16 17 18 19 20 21 22 23 24 25 26 27 28 29 30 31 32 33 34 35
000
FTUS43 KLOT 241915 AAA
TAFRFD
TAF AMD
KRFD 241915Z 2419/2518 11011KT P6SM -SHRA SCT040 BKN080
     FM250300 18015G22KT P6SM VCSH BKN040 OVC080
     FM250700 18015G25KT P6SM -SHRA VCTS BKN020 OVC040CB
      TEMPO 2508/2512 TSRA SCT012 BKN020CB OVC040
     FM251400 22023G34KT P6SM BKN025 BKN040
     FM251700 23020G30KT P6SM SCT030=

USA.gov is the U.S. government's official web portal to all federal, state and local government web resources and services.